RA601 UNKL-UNKL

Flight info

Callsign RA601
Flight time N/A
Altitude 2000
Route DCT
Aircraft C172/L-SFG/C

Departure

Time 2026-04-27 03:49
Airport Krasnoyarsk International Airport (UNKL)

Arrival

Time N/A
Airport Krasnoyarsk International Airport (UNKL)
Time Latitude Longitude Altitude Speed Heading
2026-04-27 03:45 56.18001 92.47756 952 ft 0 kts 112°
2026-04-27 03:46 56.17996 92.47775 952 ft 9 kts 122°
2026-04-27 03:46 56.17930 92.47902 952 ft 15 kts 142°
2026-04-27 03:46 56.17849 92.47864 951 ft 11 kts 205°
2026-04-27 03:47 56.17773 92.47805 951 ft 14 kts 202°
2026-04-27 03:47 56.17690 92.47716 948 ft 13 kts 249°
2026-04-27 03:47 56.17740 92.47456 948 ft 42 kts 294°
2026-04-27 03:47 56.17903 92.46767 948 ft 77 kts 291°
2026-04-27 03:48 56.18100 92.45841 1058 ft 83 kts 288°
2026-04-27 03:48 56.18047 92.44953 1254 ft 74 kts 207°
2026-04-27 03:48 56.17714 92.45650 1256 ft 91 kts 112°
2026-04-27 03:48 56.17495 92.46761 1321 ft 98 kts 109°
2026-04-27 03:49 56.17372 92.47972 1421 ft 99 kts 103°
2026-04-27 03:49 56.17175 92.49154 1523 ft 99 kts 108°
2026-04-27 03:49 56.16965 92.50367 1613 ft 104 kts 109°
2026-04-27 03:49 56.16702 92.51580 1717 ft 105 kts 121°
2026-04-27 03:50 56.16365 92.52752 1819 ft 106 kts 119°
2026-04-27 03:50 56.16026 92.53930 1920 ft 106 kts 119°
2026-04-27 03:50 56.15686 92.55114 2020 ft 107 kts 119°
2026-04-27 03:50 56.15336 92.56327 2031 ft 114 kts 119°
2026-04-27 03:51 56.14963 92.57614 2037 ft 117 kts 119°
2026-04-27 03:51 56.14584 92.58928 2036 ft 119 kts 119°
2026-04-27 03:51 56.14200 92.60255 2037 ft 120 kts 119°
2026-04-27 03:51 56.13814 92.61586 2039 ft 120 kts 119°
2026-04-27 03:52 56.13433 92.62908 2036 ft 121 kts 119°
2026-04-27 03:52 56.13046 92.64248 2037 ft 121 kts 119°
2026-04-27 03:52 56.12657 92.65591 2038 ft 122 kts 119°
2026-04-27 03:52 56.12264 92.66946 2037 ft 122 kts 119°
2026-04-27 03:53 56.11882 92.68266 2028 ft 115 kts 119°
2026-04-27 03:53 56.11527 92.69497 2018 ft 109 kts 119°
2026-04-27 03:53 56.11119 92.70598 2018 ft 104 kts 150°
2026-04-27 03:53 56.10437 92.70852 2029 ft 99 kts 172°
2026-04-27 03:54 56.09757 92.71046 2029 ft 98 kts 173°
2026-04-27 03:54 56.09089 92.71229 2027 ft 98 kts 173°
2026-04-27 03:54 56.08415 92.71413 2027 ft 98 kts 173°
2026-04-27 03:54 56.07740 92.71597 2027 ft 98 kts 173°
2026-04-27 03:55 56.07065 92.71781 2026 ft 98 kts 173°
2026-04-27 03:55 56.06400 92.71980 2023 ft 98 kts 164°
2026-04-27 03:55 56.05924 92.72883 2034 ft 103 kts 125°
2026-04-27 03:55 56.05501 92.73947 2038 ft 106 kts 132°
2026-04-27 03:56 56.04982 92.74880 2038 ft 108 kts 136°
2026-04-27 03:56 56.04445 92.75839 2037 ft 109 kts 137°
2026-04-27 03:56 56.03904 92.76802 2039 ft 109 kts 137°
2026-04-27 03:56 56.03367 92.77757 2037 ft 110 kts 137°
2026-04-27 03:57 56.02823 92.78723 2037 ft 110 kts 137°
2026-04-27 03:57 56.02278 92.79692 2037 ft 110 kts 137°
2026-04-27 03:57 56.01742 92.80646 2037 ft 110 kts 137°
2026-04-27 03:57 56.01198 92.81614 2036 ft 110 kts 137°
2026-04-27 03:58 56.00929 92.82851 2021 ft 113 kts 83°
2026-04-27 03:58 56.01057 92.84230 2030 ft 112 kts 83°
2026-04-27 03:58 56.01183 92.85600 2036 ft 115 kts 82°